www.pogodaiklimat.ru

Погода и климат >> Архив погоды >> Россия >> Магаданская область >> Остров Спафарьева


ПОГОДА на Остров Спафарьева

  • Прогноз погоды на Остров Спафарьева
  • Монитор погоды на Остров Спафарьева
  • Климат города

АРХИВ ПОГОДЫ на Остров Спафарьева

Время (UTC), дата Ветер
(напр.,м/с)
 
Видим.   Явления Облачность Т
(С)
Тd
(С)
f
(%)
Тe
(С)
Тes
(С)
Комфортность P
(гПа)
Po
(гПа)
Тmin
(С)
Tmax
(С)
R
(мм)
R24
(мм)
S
(см)
09 17.05 ЮВ 9-14
{16}
50 км 10/10 200 м
[St]
+1.1 +1.0 99 -7 -7 1005.4 998.9 +1.8
12 17.05 ЮВ 10-15
{16}
50 км {морось} 10/10 200 м
[St]
+1.0 +1.0 100 -7 -7 1005.3 998.8
15 17.05 В 8-13
{17}
10 км слабый ливневой снег 10/10 200 м
[Cb cap]
+0.1 +0.1 100 -8 -8 1005.0 998.5
18 17.05 ЮВ 9-14
{15}
4000 м слабый ливневой снег 10/10 200 м
[Cb cap]
+0.1 +0.1 100 -8 -8 1003.8 997.3
21 17.05 ЮВ 9-15
{18}
2000 м слабый ливневой снег 10/10 200 м
[Cb cap]
+0.2 +0.1 99 -8 -8 1002.9 996.4 0.0 6 3
00 18.05 ЮВ 11-16
{17}
10 км слабый ливневой снег 10/10 200 м
[St]
+0.4 +0.4 100 -8 -8 1002.0 995.5
03 18.05 ЮВ 11-16
{17}
10 км слабый ливневой снег 10/10 200 м
[St]
+0.4 +0.4 100 -8 -8 1002.0 995.5
06 18.05 ЮВ 8
{17}
50 км в посл. час ливневой снег 10/10 300 м
[Cb cap]
+0.5 +0.5 100 -7 -7 1002.3 995.8
09 18.05 ЮВ 9-13
{13}
1000 м ливневой снег 10/10 300 м
[Cb cap]
0.0 0.0 100 -8 -8 999.8 993.3 -0.1 4
12 18.05 ЮВ 12-16
{17}
1000 м ливневой снег 10/10 300 м
[Cb cap]
-0.1 -0.1 100 -9 -9 998.1 991.7
15 18.05 ЮВ 10-16
{17}
1000 м ливневой снег 10/10 300 м
[Cb cap]
-0.1 0.0 100 -9 -9 996.2 989.8
18 18.05 В 9-13
{18}
2000 м слабый ливневой снег 10/10 300 м
[Cb cap]
-0.1 0.0 100 -8 -8 995.6 989.2
21 18.05 В 10-13
{15}
4000 м слабый ливневой снег 10/10 300 м
[Cb cap]
0.0 0.0 100 -9 -9 996.2 989.8 -0.1 10 17
00 19.05 В 5
{15}
10 км слабый ливневой снег 10/10 300 м
[Cb cap]
+0.4 +0.4 100 -6 -6 997.8 991.3
03 19.05 ЮВ 1 50 км {ливн. осадки} 10/10 300 м
[Cb cap]
+2.1 +2.0 99 0 0 999.3 992.9
06 19.05 Ю 1 50 км {ливн. осадки} 4/3 300 м
[Sc Ac trans Ci fib]
+3.9 +0.6 79 +3 +8 999.7 993.4
09 19.05 СЗ 2 50 км 8/1 600 м
[Sc Ac trans Ci fib]
+2.3 +1.1 92 -1 -1 1000.1 993.7 +4.2 0.3
12 19.05 штиль 0 50 км 10/10 600 м
[Cb cap]
+1.0 +0.6 97 -0 -0 1000.8 994.4
15 19.05 В 3 50 км 10/10 600 м
[Cb cap]
+0.4 +0.3 99 -4 -4 999.3 992.8
18 19.05 В 3 50 км 10/10 600 м
[Cb cap]
-0.1 -0.1 100 -5 -5 997.8 991.3
21 19.05 ЮВ 2 10 км слабый ливневой снег 10/10 600 м
[Cb cap]
+0.1 +0.1 100 -4 -4 996.3 989.8 -0.4 0.0 2
00 20.05 С 3
{10}
10 км слабый ливневой снег 10/10 300 м
[Cb cap]
+2.2 +1.0 92 -2 -2 994.3 987.9
03 20.05 С 6 50 км {ливн. осадки} 10/8 300 м
[Cb cap As trans]
+3.6 -0.2 76 -2 -1 992.0 985.7
06 20.05 СЗ 7-10
{10}
50 км {ливн. осадки} 10/10 300 м
[Cb cap]
+3.4 +0.8 83 -3 -3 990.8 984.5
09 20.05 СЗ 2
{14}
10 км слабый ливневой снег 10/10 300 м
[Cb cap]
+1.5 +0.8 95 -2 -2 991.0 984.6 +4.1 0.7
12 20.05 СЗ 5 50 км {ливн. осадки} 10/10 600 м
[Cb cap]
+1.6 +1.2 97 -4 -4 989.7 983.3
15 20.05 СЗ 3 50 км 10/10 600 м
[Cb cap]
+2.8 +1.0 88 -1 -1 988.9 982.5
18 20.05 С 4 50 км 10/3 600 м
[Cb cap As trans]
+4.0 -0.8 71 -0 -0 988.6 982.3
21 20.05 С 4 50 км 10/3 600 м
[Cb cap As trans]
+5.1 -0.9 65 +1 +2 988.4 982.2 +0.7 2 0
00 21.05 СЗ 4 50 км 9/9 600 м
[Cb cap]
+5.3 +0.3 70 +2 +2 988.8 982.5
03 21.05 СЗ 4 50 км 10/8 600 м
[Cb cap Cs]
+6.0 +1.7 74 +2 +4 988.7 982.4
06 21.05 СЗ 4 50 км в посл. час ливневой дождь 10/5 600 м
[Cb cap Cs]
+6.5 +2.4 75 +3 +5 988.8 982.5
09 21.05 С 2 50 км в посл. час ливневой дождь 10/10 600 м
[Cb cap]
+4.4 +2.3 86 +2 +2 989.1 982.8 +7.1 0.0
12 21.05 СВ 3 10 км слабый ливневой дождь 10/10 600 м
[Cb cap]
+3.6 +2.4 92 -0 -0 990.4 984.1
15 21.05 В 2 50 км {ливн. осадки} 9/6 600 м
[Cb cap Ci fib]
+3.9 +1.3 83 +1 +1 991.6 985.2
18 21.05 СВ 4 50 км {ливн. осадки} 9/4 600 м
[Cb cap Ci fib]
+3.2 +1.2 87 -2 -2 992.7 986.3
21 21.05 С 1 50 км 9/3 600 м
[Sc Cs]
+5.8 -0.2 65 +5 +8 993.9 987.6 +2.8 1 0
00 22.05 С 3
{13}
50 км 9/0
[Cs]
+8.1 -1.2 52 +6 +14 995.2 988.9
03 22.05 СЗ 3 50 км 9/0
[Cs]
+8.3 +0.5 58 +6 +15 опасность
простуды
996.7 990.4
06 22.05 С 5 50 км 9/1 600 м
[Cb cap Ac trans Cs]
+6.9 +1.0 66 +3 +5 998.4 992.1
09 22.05 СЗ 4 50 км 9/8 600 м
[Cb cap Ac trans]
+5.4 +0.8 72 +2 +2 1000.1 993.8 +8.3
12 22.05 С 1 50 км 9/6 600 м
[Sc Ac trans Ci fib]
+5.3 +0.5 71 +4 +4 1002.3 996.0
15 22.05 ЮВ 2 50 км 3/0
[Ci fib]
+3.6 +0.6 81 +1 +1 1003.5 997.1
18 22.05 СВ 4 50 км 4/3 1000 м
[Sc Ci fib]
+4.1 -1.3 68 0 0 1004.8 998.4
21 22.05 С 3 50 км 4/0
[Ci fib]
+7.7 -0.5 56 +5 +8 1006.2 999.5 +3.3 0
00 23.05 С 1 50 км 3/0
[Ci fib]
+9.9 -2.1 43 +10 +23 опасность
простуды
1007.0 1000.7
03 23.05 СЗ 3 50 км 3/1 600 м
[Cu med, cong Ci fib]
+9.3 +2.1 61 +7 +17 опасность
простуды
1008.3 1002.0
06 23.05 С 4 50 км 6/1 600 м
[Cu med, cong Ac trans]
+8.1 +3.0 70 +5 +8 1009.2 1002.9
09 23.05 СЗ 4 50 км 8/6 600 м
[Sc Ac trans]
+6.9 -0.8 58 +4 +4 1010.5 1004.1 +10.4
12 23.05 С 5 50 км 1/1 600 м
[Sc]
+5.0 -0.9 66 +1 +1 1012.3 1005.9
15 23.05 С 2 50 км 1/1 600 м
[Sc]
+5.6 -2.0 58 +4 +4 1013.0 1006.6
18 23.05 С 2 50 км 8/8 600 м
[Sc]
+5.0 +0.3 72 +3 +3 1013.9 1007.4
21 23.05 С 4 50 км 1/1 600 м
[Sc]
+6.1 +1.4 72 +3 +5 1015.0 1008.6 +3.7
00 24.05 СЗ 3 50 км 8/0
[Ac trans Ci fib]
+8.9 -2.1 46 +7 +13 1015.2 1008.8
03 24.05 С 5 50 км 3/0
[Ac trans]
+8.9 +0.1 54 +6 +12 1015.4 1009.0

 

Местоположение метеостанции Остров Спафарьева (Магаданская область, Россия): широта 59.15 долгота 149.00 высота над уровнем моря 52 м.

В архиве по умолчанию представлена погода на Остров Спафарьева за последнюю неделю. Архивные данные за месяц целиком и за предыдущие месяцы, начиная с января 2011 года, Вы можете получить, выбрав интересующий диапазон дат из раскрывающегося списка и нажав кнопку "Ввод!".

Внимание! Время в таблицах - всемирное. Для получения местного времени необходимо прибавить поправку, которая на Остров Спафарьева равна 11 ч.

Смотрите также архив погоды в соседних городах и на ближайших метеорологических станциях:

Погода в Талоне (Магаданская область, Россия) (72 км)
Погода в Армани (Магаданская область, Россия) (84 км)
Погода в Магадане (Магаданская область, Россия) (106 км)
Погода в Оле (Магаданская область, Россия) (133 км)
Погода на Мысе Алевина (Магаданская область, Россия) (137 км)
Погода в Палатке (Магаданская область, Россия) (150 км)
Погода в Мадауне (Магаданская область, Россия) (187 км)
Погода в Усть-Омчуге (Магаданская область, Россия) (222 км)
Погода на Мысе Братьев (Магаданская область, Россия) (245 км)
Погода в Талае (Магаданская область, Россия) (286 км)

Пояснения к столбцам:

Ветер - указаны скорость ветра в м/с - средняя за 10 мин, порывы в срок и между сроками (в фигурных скобках) и направление, откуда дует ветер: С - северный, СВ - северо-восточный, В - восточный, ЮВ - юго-восточный, Ю - южный, ЮЗ - юго-западный, З - западный, СЗ - северо-западный.
Видимость - горизонтальная дальность видимости в метрах или километрах. При видимости от 1 до 10 км при отсутствии осадков обычно наблюдается дымка, при ухудшении видимости до 1 км и менее - туман. В сухую погоду видимость может ухудшаться дымом, пылью или мглою.
Явления - указаны атмосферные явления, наблюдавшиеся в срок или в последний час перед сроком; фигурными скобками обозначены явления, наблюдавшиеся между сроками (за 1-3 часа до срока); квадратными скобками обозначены град или гололедные отложения с указанием их диаметра в мм.
Облачность - указаны через наклонную черту общая и нижняя облачность в баллах и высота нижней границы облаков в метрах; квадратными скобками обозначены формы облаков: Ci - перистые, Cs - перисто-слоистые, Cc - перисто-кучевые, Ac - высококучевые, As - высокослоистые, Sc - слоисто-кучевые, Ns - слоисто-дождевые, Cu - кучевые, Cb - кучево-дождевые. Подробнее классификацию облаков см. в Атласе облаков (PDF).
T - Температура воздуха - температура, измеренная на высоте 2 м над землей.
Td - Температура точки росы - температура, при понижении до которой содержащийся в воздухе водяной пар достигнет насыщения.
f - Относительная влажность воздуха - влажноcть воздуха, измеренная на высоте 2 м над землей.
Te - Эффективная температура - температура, которую ощущает одетый по сезону человек в тени. Характеристика душности погоды. При расчете учитывается влияние влажности воздуха и скорости ветра на теплоощущения человека.
Tes - Эффективная температура на солнце - температура, которую ощущает человек, с поправкой на солнечный нагрев. Характеристика знойности погоды. Зависит от высоты солнца над горизонтом, облачности и скорости ветра. Ночью, в пасмурную погоду, а также при ветре 12 м/с и более поправка равна нулю.
P - Атмосферное давление - приведенное к уровню моря атмосферное давление.
Po - Атмосферное давление - измеренное на уровне метеостанции атмосферное давление.
Tmin - Минимальная температура - минимум температуры воздуха на высоте 2 м над землей.
Tmax - Максимальная температура - максимум температуры воздуха на высоте 2 м над землей.
R - Количество осадков - Количество выпавших осадков за период времени, мм. При наведении курсора мыши на число - период времени, за который выпало указанное количество осадков.
R24 - Количество осадков - Количество выпавших осадков за 24 часа, мм.
S - Снежный покров - Высота снежного покрова, см. При наведении курсора мыши на число - состояние снежного покрова и степень покрытия местности в баллах.